PBO Station Position Time Series. Reference Frame : NAM14
Format Version,1.1.1
4-character ID,EWPP
Station name,EWPP_SCGN_CS1999
Begin Date, 1999-03-16
End Date, 2023-06-26
Release Date, 2023-06-27
Reference position, 34.1041981369 North Latitude, -117.5255855398 East Longitude, 330.47190 meters elevation,
Date, North (mm), East (mm), Vertical (mm), North Std. Deviation (mm), East Std. Deviation (mm),              Vertical Std. Deviation (mm), Quality,
1999-03-16,0.00, 0.00, 0.00, 2.29, 2.00, 8.82, repro,
1999-03-17,0.21, 0.06, 0.08, 2.09, 1.82, 8.01, repro,
1999-03-18,-0.96, -0.20, -1.87, 2.21, 1.96, 8.36, repro,
1999-03-19,-0.53, -0.62, -4.32, 2.20, 1.95, 8.43, repro,
1999-03-20,1.38, -1.43, -1.59, 2.22, 2.01, 8.74, repro,
1999-03-21,0.56, -2.12, 2.95, 2.09, 1.88, 8.14, repro,
1999-03-22,-0.11, -1.07, -4.20, 2.48, 2.20, 9.90, repro,
1999-03-23,1.66, 0.08, -3.55, 2.19, 2.03, 8.63, repro,
1999-03-24,-0.92, -1.53, 0.99, 2.39, 2.14, 9.58, repro,
1999-03-25,-0.61, -1.65, -4.69, 2.32, 2.01, 9.07, repro,
1999-03-26,0.05, -1.72, 4.45, 2.32, 2.07, 9.10, repro,
1999-03-27,1.29, -0.08, 3.73, 2.10, 1.88, 8.14, repro,
1999-03-28,-0.69, -1.28, 4.56, 2.33, 2.03, 9.20, repro,
1999-03-29,-0.10, -0.69, 1.91, 2.32, 2.10, 9.19, repro,
1999-03-30,0.11, 0.12, -2.68, 2.28, 1.96, 8.86, repro,
1999-03-31,-0.16, -0.24, -9.93, 2.32, 1.95, 8.89, repro,
1999-04-01,0.07, -1.31, 7.75, 2.22, 1.91, 8.53, repro,
1999-04-02,-1.55, -1.86, -0.27, 2.35, 1.97, 8.86, repro,
1999-04-03,-0.20, 0.20, -2.39, 2.10, 1.80, 7.89, repro,
1999-04-04,0.40, -1.31, 5.39, 2.12, 1.79, 7.95, repro,
1999-04-05,-0.38, 0.54, 0.35, 2.29, 1.95, 8.76, repro,
1999-04-06,-1.01, -0.20, 1.86, 2.15, 1.86, 8.23, repro,
1999-04-07,-0.23, -0.76, -1.18, 2.03, 1.79, 7.82, repro,
1999-04-08,0.77, 0.53, -0.23, 2.05, 1.79, 7.90, repro,
1999-04-09,-0.46, -0.64, 5.55, 2.08, 1.87, 8.11, repro,
1999-04-10,0.38, -0.33, 0.56, 2.02, 1.77, 7.79, repro,
1999-04-11,0.24, -0.78, 2.86, 2.04, 1.78, 7.89, repro,
1999-04-12,0.75, -1.40, -0.10, 2.08, 1.84, 7.94, repro,
1999-04-13,-5.84, -0.68, -0.76, 2.02, 1.77, 7.80, repro,
1999-04-14,-1.27, -1.04, -1.51, 2.03, 1.77, 7.80, repro,
1999-04-15,0.08, -1.34, -2.74, 2.04, 1.76, 7.83, repro,
1999-04-16,0.48, -0.35, -2.32, 2.03, 1.83, 8.04, repro,
1999-04-17,0.56, -0.69, 0.97, 2.11, 1.79, 8.13, repro,
1999-04-18,0.43, 0.23, 3.72, 2.01, 1.77, 7.84, repro,
1999-04-19,-0.29, -1.35, 4.07, 2.01, 1.75, 7.71, repro,
1999-04-20,1.37, -0.74, 6.38, 2.07, 1.78, 8.05, repro,
1999-04-21,-0.84, 0.01, 13.60, 2.04, 1.79, 8.08, repro,
1999-04-22,-2.46, -1.70, 9.57, 2.05, 1.78, 8.05, repro,
1999-04-23,1.56, -0.76, 8.05, 2.06, 1.80, 7.94, repro,
1999-04-24,-0.37, -0.14, 10.50, 2.03, 1.76, 7.78, repro,
1999-04-25,1.04, 0.73, 11.22, 2.04, 1.79, 7.87, repro,
1999-04-26,0.75, -0.93, 3.55, 2.00, 1.75, 7.76, repro,
1999-04-27,-0.67, -0.75, 10.75, 2.04, 1.80, 7.96, repro,
1999-04-28,0.93, -0.42, 8.91, 2.04, 1.85, 8.00, repro,
1999-04-29,-0.78, -2.17, 11.35, 2.05, 1.84, 7.98, repro,
1999-04-30,-1.19, -1.09, 5.98, 2.06, 1.84, 7.98, repro,
1999-05-01,0.42, -2.90, 12.56, 2.08, 1.89, 8.11, repro,
1999-05-02,0.06, -0.91, 9.91, 2.05, 1.83, 7.96, repro,
1999-05-03,-0.50, -3.68, 18.15, 2.05, 1.88, 8.09, repro,
1999-05-04,-1.29, -0.97, 18.83, 2.08, 1.89, 8.15, repro,
1999-05-05,-0.09, -1.09, 16.56, 2.13, 1.92, 8.23, repro,
1999-05-06,0.04, -1.66, 7.45, 2.05, 1.84, 7.95, repro,
1999-05-07,0.09, -0.57, 3.77, 2.01, 1.76, 7.81, repro,
1999-05-08,-0.16, -1.78, 8.73, 2.04, 1.82, 7.86, repro,
1999-05-09,-0.60, -1.39, 7.72, 2.06, 1.83, 7.93, repro,
1999-05-10,-0.64, -0.98, 8.50, 2.04, 1.77, 7.90, repro,
1999-05-11,0.31, 0.35, 3.24, 2.05, 1.83, 7.99, repro,
1999-05-12,0.62, -0.25, 5.08, 2.17, 1.93, 8.45, repro,
1999-05-13,1.08, -0.94, 9.33, 2.12, 1.87, 8.36, repro,
1999-05-14,-0.02, -0.64, 8.22, 2.04, 1.85, 8.00, repro,
1999-05-15,-0.17, -1.30, 3.62, 2.05, 1.84, 7.96, repro,
1999-05-16,-0.43, -0.61, 0.41, 2.06, 1.85, 8.02, repro,
1999-05-17,1.15, -0.66, 6.61, 2.07, 1.89, 8.16, repro,
1999-05-18,0.51, -0.26, 4.04, 2.11, 1.88, 8.31, repro,
1999-05-19,-0.05, -2.31, 7.23, 2.03, 1.79, 8.04, repro,
1999-05-20,-1.37, -1.69, 3.45, 2.05, 1.84, 8.06, repro,
1999-05-21,0.07, -1.58, 8.17, 2.04, 1.82, 7.92, repro,
1999-05-22,0.02, -1.01, 3.34, 2.04, 1.84, 7.97, repro,
1999-05-23,-0.11, 1.17, 15.79, 2.05, 1.85, 7.98, repro,
1999-05-24,1.59, -0.90, 0.03, 2.05, 1.84, 8.00, repro,
1999-05-25,1.30, 0.95, 15.97, 2.03, 1.77, 7.91, repro,
1999-05-26,-0.12, -0.05, 8.55, 2.03, 1.86, 7.98, repro,
1999-05-27,0.86, -0.47, 4.64, 2.00, 1.75, 7.77, repro,
1999-05-28,-0.61, -1.74, 10.47, 2.04, 1.78, 8.03, repro,
1999-05-29,0.51, -1.08, 15.48, 2.00, 1.74, 7.73, repro,
1999-05-30,1.46, -1.42, 7.14, 2.01, 1.77, 7.84, repro,
1999-05-31,-0.74, -0.48, 5.97, 2.04, 1.78, 7.86, repro,
1999-06-01,1.88, -0.91, 16.42, 2.69, 2.71, 11.28, repro,
1999-06-02,0.34, -1.01, 16.22, 2.00, 1.76, 7.77, repro,
1999-06-03,1.57, -1.02, 18.39, 2.09, 1.82, 8.02, repro,
1999-06-04,-0.46, -0.86, 14.52, 2.04, 1.79, 7.90, repro,
1999-06-05,-0.06, -1.20, 19.45, 2.05, 1.80, 7.94, repro,
1999-06-06,1.15, -0.57, 9.90, 2.20, 1.95, 8.48, repro,
1999-06-07,-0.02, -0.14, 14.12, 2.06, 1.84, 7.97, repro,
1999-06-08,1.48, -1.26, 18.11, 2.01, 1.78, 7.83, repro,
1999-06-09,-0.35, -1.14, 19.42, 2.03, 1.77, 7.90, repro,
1999-06-10,0.89, -1.35, 20.13, 2.04, 1.79, 7.87, repro,
1999-06-11,0.02, -1.37, 9.19, 2.09, 1.82, 8.24, repro,
1999-06-12,-0.25, -1.03, 19.03, 2.00, 1.77, 7.76, repro,
1999-06-13,0.97, -1.94, 13.82, 2.04, 1.80, 7.93, repro,
1999-06-14,0.22, -1.41, 9.94, 2.21, 1.83, 8.67, repro,
1999-06-15,0.10, -0.66, 11.65, 2.09, 1.82, 8.07, repro,
1999-06-16,1.40, -1.57, 16.63, 2.02, 1.77, 7.83, repro,
1999-06-17,0.85, -2.22, 15.55, 2.06, 1.81, 7.97, repro,
1999-06-18,0.34, -3.23, 11.59, 2.00, 1.76, 7.84, repro,
1999-06-19,0.87, -2.61, 14.83, 2.02, 1.79, 7.92, repro,
1999-06-20,1.14, -1.64, 19.08, 2.00, 1.77, 7.85, repro,
1999-06-22,1.97, -1.85, 19.93, 2.18, 1.83, 8.52, repro,
1999-06-23,-0.30, -2.74, 21.62, 2.04, 1.78, 7.90, repro,
1999-06-24,-0.71, -1.89, 14.37, 2.08, 1.79, 8.09, repro,
1999-06-25,0.47, -2.24, 15.34, 2.13, 1.86, 8.29, repro,
1999-06-26,1.33, -1.49, 13.76, 2.12, 1.83, 8.18, repro,
1999-06-27,1.00, -1.88, 15.50, 2.14, 1.82, 8.49, repro,
1999-06-28,0.66, -2.50, 19.46, 2.08, 1.84, 8.10, repro,
1999-06-29,0.58, -4.16, 28.02, 4.68, 3.93, 18.17, repro,
1999-06-30,1.05, -2.01, 14.95, 2.13, 1.91, 8.47, repro,
1999-07-01,1.14, -1.21, 26.09, 2.29, 1.93, 9.14, repro,
1999-07-02,0.07, -1.38, 18.62, 2.14, 1.83, 8.57, repro,
1999-07-03,0.05, -2.35, 27.74, 2.16, 1.84, 8.64, repro,
1999-07-04,0.04, -1.75, 20.19, 2.08, 1.81, 8.19, repro,
1999-07-05,1.15, -1.36, 22.06, 2.18, 1.85, 8.62, repro,
1999-07-06,1.75, -2.15, 18.17, 2.14, 1.96, 8.52, repro,
1999-07-07,-0.14, -2.11, 23.44, 2.24, 1.92, 8.63, repro,
1999-07-08,1.63, -2.28, 23.27, 2.17, 1.84, 8.39, repro,
1999-07-09,1.19, -2.34, 27.27, 2.15, 1.82, 8.27, repro,
1999-07-10,-0.15, -0.89, 13.16, 2.23, 1.88, 8.69, repro,
1999-07-11,2.27, -1.57, 7.15, 2.18, 1.91, 8.63, repro,
1999-07-12,2.78, -2.71, 15.36, 2.02, 1.78, 7.86, repro,
1999-07-13,0.73, -0.85, 9.48, 2.11, 1.84, 8.34, repro,
1999-07-22,-0.88, -1.56, 20.33, 4.65, 3.70, 18.70, repro,
1999-07-23,-0.03, -2.16, 23.30, 2.22, 1.85, 8.67, repro,
1999-07-24,0.68, -2.33, 14.26, 2.31, 2.09, 9.37, repro,
1999-07-25,-0.34, -0.10, 9.25, 2.13, 1.82, 8.29, repro,
1999-07-26,1.54, -1.58, 15.35, 2.15, 1.83, 8.25, repro,
1999-07-27,-0.52, -1.92, 18.87, 2.10, 1.79, 8.19, repro,
1999-07-28,3.10, -2.04, 18.47, 2.01, 1.74, 7.77, repro,
1999-07-29,1.36, -1.70, 21.25, 2.05, 1.79, 7.88, repro,
1999-07-30,1.34, -1.32, 28.80, 2.11, 1.90, 8.36, repro,
1999-07-31,0.11, -2.51, 14.55, 2.01, 1.77, 7.85, repro,
1999-08-01,0.44, -3.18, 10.28, 2.01, 1.77, 7.87, repro,
1999-08-02,1.16, -0.38, 2.06, 2.03, 1.74, 7.83, repro,
1999-08-03,1.27, -1.90, 14.14, 2.17, 1.87, 8.32, repro,
1999-08-04,-0.33, -1.41, 8.57, 2.06, 1.78, 8.12, repro,
1999-08-05,-0.56, -1.36, 9.19, 2.10, 1.83, 8.11, repro,
1999-08-06,0.34, -2.56, 14.85, 2.09, 1.83, 8.13, repro,
1999-08-07,0.16, -2.88, 16.01, 2.10, 1.83, 8.14, repro,
1999-08-08,1.10, 0.02, 10.34, 2.71, 2.42, 10.70, repro,
1999-08-10,0.99, -2.36, 11.93, 2.25, 2.09, 9.00, repro,
1999-08-11,0.13, -0.99, 19.55, 2.05, 1.83, 7.99, repro,
1999-08-12,1.65, -2.35, 13.27, 2.01, 1.75, 7.87, repro,
1999-08-13,0.14, -1.51, 13.43, 2.00, 1.73, 7.76, repro,
1999-08-14,1.16, -1.29, 16.33, 2.00, 1.72, 7.73, repro,
1999-08-15,0.42, -0.74, 11.55, 2.17, 1.81, 8.28, repro,
1999-08-16,1.54, -1.19, 15.67, 2.03, 1.75, 7.84, repro,
1999-08-17,1.82, -1.60, 16.00, 2.04, 1.82, 7.95, repro,
1999-08-18,0.74, -0.54, 11.16, 2.02, 1.75, 7.83, repro,
1999-08-19,1.90, -2.23, 26.97, 2.01, 1.74, 7.81, repro,
1999-08-20,2.03, -1.93, 15.03, 2.08, 1.79, 7.97, repro,
1999-08-21,-0.46, 0.32, 13.23, 2.02, 1.75, 7.83, repro,
1999-08-22,0.75, -2.93, 10.67, 2.05, 1.81, 7.99, repro,
1999-08-23,0.38, -0.87, 18.87, 2.15, 1.81, 8.19, repro,
1999-08-24,2.23, -0.42, 11.26, 2.10, 1.81, 8.13, repro,
1999-08-25,-0.41, -0.88, 21.60, 2.10, 1.79, 8.02, repro,
1999-08-26,0.12, 0.03, 18.89, 2.23, 1.79, 8.59, repro,
1999-08-27,0.57, -2.07, 21.30, 2.11, 1.85, 8.11, repro,
1999-08-28,1.34, -2.50, 18.52, 2.09, 1.86, 8.11, repro,
1999-08-29,1.50, -1.51, 18.80, 2.13, 1.89, 9.47, repro,
1999-08-30,1.67, -0.09, 13.15, 2.15, 1.89, 8.25, repro,
1999-08-31,1.06, -1.71, 24.71, 2.16, 1.88, 8.23, repro,
1999-09-01,2.12, -2.05, 19.27, 2.37, 1.96, 8.91, repro,
1999-09-02,2.14, -0.89, 14.74, 2.10, 1.84, 8.09, repro,
1999-09-03,0.98, -2.43, 11.90, 2.19, 1.88, 8.44, repro,
1999-09-04,2.10, -1.27, 15.71, 2.18, 1.85, 8.28, repro,
1999-09-05,2.29, -1.47, 17.13, 2.07, 1.80, 7.99, repro,
1999-09-06,0.25, -0.29, 20.77, 2.19, 1.87, 8.39, repro,
1999-09-07,-0.37, -0.58, 14.65, 2.46, 1.95, 9.62, repro,
1999-09-08,2.90, -2.19, 7.65, 2.32, 1.92, 9.16, repro,
1999-09-09,-0.21, -1.45, 11.59, 2.23, 1.88, 8.62, repro,
1999-09-10,2.88, -0.09, 11.75, 2.15, 1.84, 8.10, repro,
1999-09-11,1.17, -1.34, 16.71, 2.30, 1.92, 8.63, repro,
1999-09-12,-1.52, -1.10, 15.48, 2.25, 1.91, 8.68, repro,
1999-09-13,2.74, -0.84, 9.43, 2.16, 1.86, 8.34, repro,
1999-09-14,2.56, -1.22, 12.68, 2.14, 1.87, 8.17, repro,
1999-09-15,2.19, -1.47, 18.65, 2.17, 1.80, 8.17, repro,
1999-09-16,0.32, -2.14, 20.66, 2.15, 1.88, 8.11, repro,
1999-09-17,-0.28, -0.59, 16.34, 2.23, 1.90, 8.50, repro,
1999-09-18,0.79, -1.35, 11.76, 2.21, 1.85, 8.27, repro,
1999-09-19,1.30, -1.36, 12.51, 2.15, 1.86, 8.17, repro,
1999-09-20,1.48, -0.94, 18.08, 2.24, 1.94, 8.46, repro,
1999-09-21,2.56, -1.53, 6.39, 2.24, 1.90, 8.43, repro,
1999-09-22,0.73, 2.58, 6.35, 3.13, 2.89, 13.68, repro,
1999-09-23,0.95, -2.05, 17.53, 2.20, 1.92, 8.42, repro,
1999-09-24,0.92, -0.85, 19.98, 2.27, 1.97, 8.61, repro,
1999-09-25,3.05, -1.24, 27.43, 2.11, 1.86, 8.23, repro,
1999-09-26,0.95, -1.88, 17.04, 2.40, 2.11, 9.33, repro,
1999-09-27,1.49, -1.03, 18.83, 2.31, 2.00, 9.03, repro,
1999-09-28,1.29, -0.15, 17.44, 2.25, 1.96, 8.60, repro,
1999-09-29,1.66, 0.36, 8.22, 2.57, 2.34, 9.77, repro,
1999-09-30,4.66, 2.01, 8.72, 4.22, 4.11, 17.81, repro,
1999-10-01,-0.38, -1.15, 20.52, 2.65, 2.29, 10.21, repro,
1999-10-02,1.94, -1.26, 16.76, 2.26, 2.04, 8.79, repro,
1999-10-03,0.61, -1.24, 13.48, 2.37, 2.16, 8.85, repro,
1999-10-04,1.71, -1.48, 12.98, 2.15, 1.93, 8.26, repro,
1999-10-05,1.56, -1.15, 17.12, 2.28, 1.95, 8.48, repro,
1999-10-06,-0.24, -1.50, 27.83, 2.38, 2.02, 8.84, repro,
1999-10-07,4.46, -1.26, 19.82, 2.30, 1.92, 8.87, repro,
1999-10-08,-0.82, -1.27, 21.74, 2.36, 2.08, 8.73, repro,
1999-10-09,0.58, -1.28, 15.05, 2.26, 1.94, 8.58, repro,
1999-10-10,0.69, -0.44, 18.50, 2.22, 1.91, 8.45, repro,
1999-10-11,2.57, -1.34, 17.15, 2.21, 1.96, 8.44, repro,
1999-10-12,-0.06, -1.12, 19.23, 2.30, 1.93, 8.53, repro,
1999-10-13,-0.95, -0.60, 13.13, 2.37, 2.02, 8.84, repro,
1999-10-14,0.14, -1.47, 16.29, 2.19, 1.95, 8.46, repro,
1999-10-15,0.40, -1.57, 18.80, 2.21, 1.95, 8.47, repro,
1999-10-16,-2.74, 6.73, -26.29, 6.36, 7.53, 33.32, repro,
1999-10-17,2.17, -0.60, 10.09, 2.18, 1.84, 8.69, repro,
1999-10-18,1.96, -1.71, 15.58, 2.24, 1.93, 9.35, repro,
1999-10-19,0.87, -1.20, 14.87, 2.20, 1.79, 8.74, repro,
1999-10-20,0.06, -2.10, 11.58, 2.04, 1.84, 8.18, repro,
1999-10-21,1.33, -1.87, 13.01, 2.21, 1.98, 9.30, repro,
1999-10-22,4.85, -3.27, 19.21, 2.24, 2.04, 9.32, repro,
1999-10-23,3.95, -1.63, 6.57, 2.08, 1.82, 8.24, repro,
1999-10-24,2.78, -1.19, 12.59, 2.11, 1.85, 8.51, repro,
1999-10-25,3.12, -2.53, 11.24, 2.05, 1.84, 8.22, repro,
1999-10-26,3.93, -3.24, 24.63, 1.96, 1.75, 8.06, repro,
1999-10-27,5.00, -2.37, 16.05, 2.07, 1.78, 8.35, repro,
1999-10-28,4.82, -2.45, 10.87, 2.20, 1.90, 8.38, repro,
1999-10-29,5.60, -1.98, 11.77, 2.20, 1.93, 8.47, repro,
1999-10-30,4.46, -1.96, 8.29, 2.10, 1.82, 8.15, repro,
1999-10-31,3.55, -2.70, 16.67, 2.25, 1.92, 8.62, repro,
1999-11-01,4.51, -3.34, 9.24, 2.43, 2.06, 9.37, repro,
1999-11-02,4.45, -2.04, 9.06, 2.21, 1.87, 8.49, repro,
1999-11-03,3.04, -1.84, 12.35, 2.48, 2.04, 9.62, repro,
1999-11-04,4.12, -3.01, 14.19, 2.21, 1.87, 8.48, repro,
1999-11-05,3.81, -2.41, 12.33, 2.15, 1.83, 8.29, repro,
1999-11-06,4.61, -3.45, 7.88, 2.15, 1.84, 8.34, repro,
1999-11-07,4.21, -2.77, 11.62, 2.21, 1.89, 8.52, repro,
1999-11-08,5.22, -3.24, 14.21, 2.16, 1.81, 8.41, repro,
1999-11-09,3.45, -2.93, 14.49, 2.35, 2.17, 9.43, repro,
1999-11-10,3.14, -3.49, 16.35, 2.20, 1.85, 8.41, repro,
1999-11-11,4.91, -2.90, 13.94, 2.06, 1.79, 8.04, repro,
1999-11-12,4.72, -2.51, 16.79, 2.10, 1.84, 8.15, repro,
1999-11-13,3.88, -3.40, 13.24, 2.22, 1.89, 8.53, repro,
1999-11-14,4.06, -3.71, 19.26, 2.09, 1.81, 8.15, repro,
1999-11-15,4.27, -3.38, 18.55, 2.15, 1.82, 8.35, repro,
1999-11-16,4.84, -3.16, 15.85, 2.14, 1.87, 8.23, repro,
1999-11-17,5.07, -4.12, 21.16, 2.10, 1.83, 8.22, repro,
1999-11-18,4.61, -4.32, 18.76, 2.13, 1.84, 8.25, repro,
1999-11-19,3.57, -4.60, 12.01, 2.20, 1.94, 8.48, repro,
1999-11-20,3.56, -3.96, 14.04, 2.18, 1.93, 8.38, repro,
1999-11-21,3.89, -3.09, 25.94, 2.48, 2.13, 9.73, repro,
1999-11-22,5.84, -0.98, 8.64, 2.19, 1.89, 8.44, repro,
1999-11-23,6.03, -2.43, 9.58, 2.33, 2.19, 9.48, repro,
1999-11-24,4.33, -3.29, 12.54, 2.63, 2.50, 10.78, repro,
1999-11-25,5.29, -2.74, 21.88, 2.30, 2.00, 8.85, repro,
1999-11-26,4.70, -3.03, 14.22, 2.23, 2.17, 8.93, repro,
1999-11-27,5.22, -3.01, 17.66, 2.01, 1.83, 8.03, repro,
1999-11-28,3.92, -2.61, 8.37, 2.04, 1.86, 8.04, repro,
1999-11-29,5.97, -2.32, 7.79, 2.08, 1.85, 8.22, repro,
1999-11-30,4.83, -1.96, 8.70, 2.28, 1.91, 8.72, repro,
1999-12-01,2.68, -2.93, 27.82, 2.19, 1.97, 8.80, repro,
1999-12-02,5.33, -3.35, 12.45, 2.00, 1.77, 7.91, repro,
1999-12-03,1.92, -2.54, 12.40, 2.27, 2.19, 9.04, repro,
1999-12-04,2.99, -3.61, 3.86, 2.26, 2.01, 8.76, repro,
1999-12-05,3.47, -3.01, 10.78, 2.09, 1.96, 8.41, repro,
1999-12-06,5.06, -3.01, 6.58, 2.29, 2.11, 9.26, repro,
1999-12-07,4.97, -3.24, 20.36, 2.22, 2.03, 8.97, repro,
1999-12-08,5.10, -5.05, 7.19, 2.72, 2.37, 10.38, repro,
1999-12-09,6.03, -3.36, 13.01, 2.22, 2.12, 8.83, repro,
1999-12-10,1.07, -4.33, 12.95, 2.08, 1.83, 8.18, repro,
1999-12-11,-0.27, -6.92, 12.11, 2.22, 2.09, 8.93, repro,
1999-12-12,-0.47, -6.55, 23.60, 2.29, 2.16, 9.23, repro,
1999-12-13,3.92, -4.74, 12.26, 2.30, 2.33, 9.27, repro,
1999-12-14,3.53, -3.84, 9.39, 2.37, 2.05, 9.09, repro,
1999-12-15,5.61, -2.78, 13.70, 2.36, 2.07, 9.57, repro,
1999-12-16,2.88, -5.76, 13.93, 2.27, 1.98, 8.90, repro,
1999-12-17,4.47, -3.76, 7.82, 2.35, 2.06, 9.20, repro,
1999-12-18,0.67, -3.30, 5.03, 2.88, 2.66, 11.63, repro,
1999-12-19,-5.09, -4.14, 11.66, 2.10, 1.96, 8.39, repro,
1999-12-20,-2.67, -5.66, 23.78, 2.14, 1.87, 8.36, repro,
1999-12-21,-1.57, -3.91, 17.91, 2.43, 1.99, 9.54, repro,
1999-12-22,3.63, 0.66, 11.99, 2.31, 2.00, 9.17, repro,
1999-12-23,5.36, -6.33, 17.20, 2.40, 2.17, 9.54, repro,
1999-12-24,3.06, -2.72, 13.73, 2.36, 2.26, 9.76, repro,
1999-12-25,4.56, -3.11, 6.41, 2.07, 1.84, 8.22, repro,
1999-12-27,4.82, -2.37, 3.23, 2.23, 1.89, 9.06, repro,
1999-12-28,3.87, -2.77, 6.67, 2.21, 1.86, 8.75, repro,
1999-12-29,3.95, -3.04, 5.68, 2.14, 1.92, 8.49, repro,
1999-12-30,4.99, -3.63, 15.82, 2.10, 1.87, 8.33, repro,
1999-12-31,4.94, -4.47, 17.04, 2.22, 1.87, 8.76, repro,
2000-01-01,3.39, -3.33, 9.83, 2.25, 1.92, 8.79, repro,
2000-01-02,2.95, -3.88, 6.58, 2.03, 1.84, 8.00, repro,
2000-01-03,4.21, -2.97, 10.86, 2.05, 1.81, 8.20, repro,
2000-01-04,3.92, -3.50, 4.22, 2.19, 1.84, 8.70, repro,
2000-01-05,4.39, -2.43, 7.81, 2.00, 1.76, 7.84, repro,
2000-01-06,-1.41, -6.88, 6.16, 2.13, 1.80, 8.44, repro,
2000-01-07,4.56, -2.68, 1.59, 2.13, 1.80, 8.36, repro,
2000-01-08,4.71, -2.82, 9.97, 1.95, 1.72, 7.65, repro,
2000-01-09,3.98, -1.98, 16.00, 1.97, 1.78, 7.87, repro,
2000-01-10,3.00, -3.06, 14.12, 1.99, 1.79, 7.87, repro,
2000-01-11,3.18, -3.35, 8.13, 1.98, 1.76, 7.93, repro,
2000-01-12,4.12, -3.92, 1.79, 2.17, 1.95, 8.82, repro,
2000-01-13,5.35, -3.17, 2.13, 2.21, 1.85, 9.11, repro,
2000-01-14,2.96, -4.21, 7.11, 2.20, 1.89, 8.79, repro,
2000-01-15,3.87, -3.92, 2.96, 2.25, 1.92, 9.21, repro,
2000-01-16,3.71, -4.40, 7.62, 1.98, 1.77, 7.96, repro,
2000-01-17,3.27, -4.46, 2.73, 2.06, 1.81, 8.20, repro,
2000-01-18,4.05, -2.29, 9.45, 2.07, 1.81, 8.22, repro,
2000-01-19,4.19, -3.07, 10.79, 2.13, 1.88, 8.41, repro,
2000-01-20,4.15, -4.34, 15.34, 2.18, 1.84, 8.86, repro,
2000-01-21,5.46, -3.83, 14.78, 2.00, 1.79, 7.94, repro,
2000-01-22,3.69, -3.72, 19.73, 2.19, 1.87, 8.67, repro,
2000-01-23,4.25, -3.54, 13.35, 2.12, 1.89, 8.67, repro,
2000-01-24,5.96, -3.86, 7.62, 2.05, 1.75, 8.07, repro,
2000-01-25,5.07, -4.08, 14.40, 2.04, 1.74, 8.04, repro,
2000-01-26,4.59, -2.98, 15.52, 2.13, 1.76, 8.39, repro,
2000-01-27,6.54, -4.20, 2.06, 2.39, 2.04, 9.31, repro,
2000-01-28,4.00, -4.52, 10.38, 2.05, 1.81, 8.27, repro,
2000-01-29,5.05, -2.59, 2.64, 2.17, 1.87, 8.89, repro,
2000-01-30,6.79, -3.98, 5.24, 2.14, 1.80, 8.68, repro,
2000-01-31,10.83, 0.44, -59.97, 67.81, 488.76, 208.37, repro,
2000-02-01,-4.42, -5.20, 21.55, 2.17, 1.86, 8.95, repro,
2000-02-02,8.41, -1.78, 0.91, 2.23, 1.82, 9.00, repro,
2000-02-03,3.44, -4.68, 6.45, 2.27, 1.88, 9.25, repro,
2000-02-04,4.84, -3.67, 23.19, 2.04, 1.80, 8.31, repro,
2000-02-05,5.29, -3.95, 11.66, 2.25, 1.95, 8.97, repro,
2000-02-06,4.49, -4.20, 12.72, 1.99, 1.78, 7.85, repro,
2000-02-07,5.69, -2.76, 4.64, 2.17, 1.84, 8.67, repro,
2000-02-08,5.26, -3.08, 4.19, 2.12, 1.90, 8.76, repro,
2000-02-09,4.79, -2.71, 4.13, 2.07, 1.86, 8.39, repro,
2000-02-10,5.16, -2.74, 2.88, 2.03, 1.79, 7.92, repro,
2000-02-11,4.68, -4.41, 6.91, 1.95, 1.72, 7.64, repro,
2000-02-12,5.91, -4.64, 2.69, 2.01, 1.76, 7.89, repro,
2000-02-13,7.46, -2.15, -1.24, 1.97, 1.73, 7.71, repro,
2000-02-14,5.68, -2.65, 7.48, 1.99, 1.75, 7.88, repro,
2000-02-15,5.91, -3.52, 6.67, 2.05, 1.81, 8.08, repro,
2000-02-16,3.67, -3.17, 9.08, 2.01, 1.76, 7.90, repro,
2000-02-17,5.18, -3.03, 14.01, 1.97, 1.72, 7.70, repro,
2000-02-18,4.42, -2.53, 5.34, 1.97, 1.74, 7.79, repro,
2000-02-19,5.31, -4.02, -1.30, 1.99, 1.74, 7.82, repro,
2000-02-20,3.74, -3.97, 6.26, 2.05, 1.77, 8.01, repro,
2000-02-21,4.51, -3.73, 8.76, 2.05, 1.77, 8.04, repro,
2000-02-22,6.33, -4.35, 9.20, 1.99, 1.72, 7.80, repro,
2000-02-23,5.90, -3.78, -0.13, 2.03, 1.80, 8.07, repro,
2000-02-24,5.86, -5.02, 0.74, 1.97, 1.71, 7.71, repro,
2000-02-25,4.72, -5.35, 4.01, 1.96, 1.71, 7.70, repro,
2000-02-26,5.38, -3.84, 7.13, 2.18, 1.95, 8.44, repro,
2000-02-27,5.15, -4.49, 7.39, 1.96, 1.71, 7.60, repro,
2000-02-28,5.05, -4.32, 2.30, 2.12, 1.84, 8.39, repro,
2000-02-29,5.92, -2.83, 1.76, 2.35, 1.99, 9.64, repro,
2000-03-01,5.33, -4.93, 5.87, 2.44, 2.56, 10.24, repro,
2000-03-02,3.90, -3.20, 2.30, 2.04, 1.80, 8.13, repro,
2000-03-03,4.81, -3.51, 12.65, 2.28, 1.99, 9.27, repro,
2000-03-04,5.99, -4.15, 7.16, 2.19, 1.95, 8.68, repro,
2000-03-05,5.02, -5.47, 9.91, 2.06, 1.76, 7.97, repro,
2000-03-06,5.89, -4.28, 6.51, 2.26, 1.93, 9.01, repro,
2000-03-07,5.21, -3.90, 3.79, 2.24, 2.03, 8.86, repro,
2000-03-08,4.64, -3.43, 4.47, 2.17, 1.86, 8.68, repro,
2000-03-09,6.41, -3.49, 3.58, 2.26, 1.89, 8.84, repro,
2000-03-10,6.25, -3.76, -4.19, 2.30, 1.97, 8.95, repro,
2000-03-11,5.69, -3.38, -5.59, 2.24, 1.90, 8.68, repro,
2000-03-12,4.84, -3.29, 1.20, 2.50, 2.11, 10.04, repro,
2000-03-13,5.15, -4.57, -2.02, 2.65, 2.21, 10.65, repro,
2000-03-14,6.32, -4.71, 4.64, 2.26, 2.01, 9.10, repro,
2000-03-15,6.42, -4.11, 6.54, 2.16, 1.89, 8.82, repro,
2000-03-16,6.79, -4.71, 3.93, 2.21, 1.95, 9.05, repro,
2000-03-17,9.49, -2.63, 0.82, 2.11, 1.89, 8.43, repro,
2000-03-18,5.22, -3.92, -0.85, 2.13, 1.85, 8.25, repro,
2000-03-19,6.00, -3.76, 7.36, 2.07, 1.78, 8.01, repro,
2000-03-20,4.19, -4.93, 11.99, 2.32, 1.95, 9.04, repro,
2000-03-21,8.55, -0.62, -9.91, 2.29, 1.96, 8.80, repro,
2000-03-22,4.32, -2.72, 3.94, 2.22, 1.95, 8.68, repro,
2000-03-23,4.87, -3.71, 4.78, 2.16, 1.87, 8.47, repro,
2000-03-24,4.43, -5.15, 2.70, 2.22, 1.91, 8.57, repro,
2000-03-25,5.74, -3.23, 8.93, 2.10, 1.77, 8.14, repro,
2000-03-26,4.89, -3.39, 6.96, 2.20, 1.82, 8.49, repro,
2000-03-27,5.44, -3.28, -0.50, 2.34, 1.85, 9.06, repro,
2000-03-28,3.83, -3.80, 10.17, 2.14, 1.74, 8.14, repro,
2000-03-29,4.63, -3.56, 8.38, 2.14, 1.75, 8.29, repro,
2000-03-30,4.66, -2.67, -2.51, 2.08, 1.74, 8.09, repro,
2000-03-31,10.20, 0.27, 22.21, 2.22, 1.88, 8.63, repro,
2000-04-01,5.96, -1.71, 18.71, 2.19, 1.85, 8.78, repro,
2000-04-02,4.47, -4.47, 8.38, 2.17, 1.83, 8.54, repro,
2000-04-03,5.87, -3.50, 7.31, 2.09, 1.73, 8.08, repro,
2000-04-04,6.16, -1.90, 7.92, 2.11, 1.74, 8.13, repro,
2000-04-05,5.11, -2.58, 12.85, 2.10, 1.74, 8.06, repro,
2000-04-06,4.72, -3.61, 17.24, 2.44, 2.20, 9.80, repro,
2000-04-07,4.09, -2.36, -2.07, 2.22, 1.78, 8.39, repro,
2000-04-08,4.14, -2.75, 6.35, 2.10, 1.80, 8.29, repro,
2000-04-09,5.21, -2.77, 10.38, 2.07, 1.77, 8.16, repro,
2000-04-10,5.32, -2.85, 5.87, 2.10, 1.78, 8.20, repro,
2000-04-11,4.57, -2.80, 5.77, 2.04, 1.72, 7.96, repro,
2000-04-12,5.40, -3.70, 5.36, 2.17, 1.79, 8.59, repro,
2000-04-13,4.50, -3.51, 3.33, 2.15, 1.80, 8.59, repro,
2000-04-14,4.58, -3.31, 10.34, 2.10, 1.73, 8.20, repro,
2000-04-15,5.78, -3.70, 14.06, 2.12, 1.86, 8.30, repro,
2000-04-16,5.09, -3.77, 6.43, 2.11, 1.78, 8.17, repro,
2000-04-17,5.04, -4.80, 12.28, 2.09, 1.81, 8.21, repro,
2000-04-18,7.57, -3.36, -2.88, 2.08, 1.82, 8.26, repro,
2000-04-19,6.02, -2.65, 7.77, 2.05, 1.78, 8.27, repro,
2000-04-20,6.45, -3.31, 2.42, 2.07, 1.73, 8.15, repro,
2000-04-21,5.62, -3.26, 9.46, 2.08, 1.75, 8.22, repro,
2000-04-22,3.65, -2.91, 15.24, 2.07, 1.73, 8.13, repro,
2000-04-23,5.24, -3.61, 13.54, 2.06, 1.72, 8.01, repro,
2000-04-24,5.33, -3.73, 4.59, 2.11, 1.75, 8.27, repro,
2000-04-25,3.81, -2.94, 4.13, 2.05, 1.72, 8.00, repro,
2000-04-26,5.36, -4.34, 7.77, 2.06, 1.79, 8.14, repro,
2000-04-27,5.36, -2.90, 2.96, 2.05, 1.73, 8.08, repro,
2000-04-28,5.94, -4.81, 7.43, 2.10, 1.82, 8.24, repro,
2000-04-29,6.19, -3.52, 5.41, 2.16, 1.90, 8.43, repro,
2000-04-30,5.69, -3.89, 1.49, 2.10, 1.83, 8.40, repro,
2000-05-01,5.40, -4.16, 4.01, 2.06, 1.81, 8.21, repro,
2000-05-02,5.43, -4.01, 6.37, 2.14, 1.90, 8.44, repro,
2000-05-03,4.23, -3.10, 11.12, 2.19, 1.96, 8.61, repro,
2000-05-04,5.90, -5.29, 4.18, 2.09, 1.86, 8.26, repro,
2000-05-05,5.65, -4.84, 13.20, 2.05, 1.74, 8.09, repro,
2000-05-06,5.28, -3.71, 8.19, 2.05, 1.73, 8.06, repro,
2000-05-07,4.75, -5.37, 15.42, 2.08, 1.84, 8.30, repro,
2000-05-08,4.95, -6.13, 20.38, 2.09, 1.82, 8.20, repro,
2000-05-09,6.21, -3.70, 10.62, 2.08, 1.81, 8.16, repro,
2000-05-10,6.49, -5.38, 13.96, 2.06, 1.72, 8.06, repro,
2000-05-11,6.18, -5.40, 11.13, 2.07, 1.81, 8.17, repro,
2000-05-12,4.38, -3.66, 20.40, 2.09, 1.81, 8.20, repro,
2000-05-13,5.31, -3.42, 14.93, 2.07, 1.81, 8.11, repro,
2000-05-14,5.04, -3.55, 16.05, 2.04, 1.72, 7.99, repro,
2000-05-15,5.80, -3.82, 9.04, 2.10, 1.75, 8.12, repro,
2000-05-16,6.39, -3.99, 17.40, 2.07, 1.76, 8.10, repro,
2000-05-17,5.11, -4.67, 11.30, 2.08, 1.81, 8.30, repro,
2000-05-18,5.05, -4.57, 14.40, 2.06, 1.72, 8.01, repro,
2000-05-19,5.30, -4.74, 15.52, 2.06, 1.74, 8.04, repro,
2000-05-20,4.76, -3.81, 6.26, 2.05, 1.74, 8.06, repro,
2000-05-21,6.16, -3.72, 14.14, 2.06, 1.77, 8.15, repro,